フォーブズ彗星

37P/Forbes (2018)

English version
Home page
Updated on June 11, 2016

---------------------------------------------------------------------

・ プロフィール

・ 軌道要素

Epoch 2018 May 2.0 TT = JDT 2458240.5
T 2018 May 4.10373 TT                                   Kobayashi
q   1.6102795            (2000.0)            P               Q
n   0.15337421     Peri.  329.97802     +0.25588499     +0.96032866
a   3.4564835      Node   314.59068     -0.85306853     +0.17036553
e   0.5341278      Incl.    8.95641     -0.45474934     +0.22078145
P   6.43
From 695 observations 1993 Mar. 21-2012 Dec. 9, mean residual 0".8.
     Nongravitational parameters A1 = +0.67, A2 = -0.0330.

・ 星図

・ 光度変化

        m1 = 9.0 + 5 logΔ + 20 log r

---------------------------------------------------------------------

軌道要素はM.P.E.C. 2015-M77に掲載されたものです。
星図はステラナビゲータ Ver.8 (アストロアーツ) で作成したものです。
光度グラフはComet for Windowsで作成したものです。

---------------------------------------------------------------------

Copyright(C) Seiichi Yoshida (comet@aerith.net). All rights reserved.